Temperature
2 2 2 2 2 2 3 3 4 4 4 5 4 4 4 4 5 5 5 6 6 6 6 6 6 6 6 6 6 5 5 5 5 5 4 4 4 4 4 4 4 4 4 4
1 2 2 2 2 2 3 3 4 4 4 4 4 4 3 4 4 4 5 5 5 6 6 6 6 6 5 5 5 5 5 5 4 4 4 4 3 3 3 3 3 3 3 3
1 2 2 2 2 2 2 2 3 4 4 3 3 3 3 3 4 4 4 5 5 5 5 5 5 5 5 5 5 4 4 4 4 3 3 3 3 3 3 3 3 3 3 3
-0 1 1 2 2 2 2 2 2 2 3 3 3 3 3 3 3 4 4 4 5 5 5 5 5 5 4 4 4 4 4 3 3 3 3 3 3 3 3 2 2 2 2 2
-1 -0 1 2 1 1 1 1 1 1 2 2 2 2 2 3 3 4 4 4 4 4 4 4 4 4 4 4 3 3 3 3 3 3 3 2 2 2 2 2 2 2 2 2
-1 -0 1 1 1 1 1 1 1 1 1 1 2 1 1 2 3 3 4 4 4 4 4 4 4 4 4 3 3 3 3 3 2 2 2 2 2 2 2 2 2 2 1 1
-1 -1 0 0 0 2 1 1 1 1 1 1 1 1 1 2 2 3 3 3 3 3 3 3 3 3 3 3 3 2 2 2 2 2 2 2 2 1 1 1 1 1 1 1
-1 -1 -0 -1 -0 -0 -0 0 1 1 1 1 1 1 1 1 2 2 2 2 3 3 3 2 3 3 3 3 2 2 2 1 1 1 1 1 1 1 1 1 1 1 0 0
-2 -1 -1 -2 -1 -1 -0 -0 0 1 1 1 0 0 0 0 1 1 1 2 2 2 2 2 2 2 2 2 1 1 1 1 1 0 0 1 1 0 0 0 0 -0 -0 -1
-3 -2 -2 -2 -2 -1 -1 -1 -0 0 0 0 0 -0 -0 -0 0 0 1 1 1 1 1 1 1 1 1 1 1 1 1 0 0 0 -0 -0 -0 -0 -0 -0 -1 -1 -1 -2
-3 -3 -3 -3 -2 -2 -1 -1 -1 -1 -1 -0 -0 -1 -1 -1 -0 -0 -0 -0 -0 0 0 -0 0 0 0 0 0 0 0 -0 -0 -1 -1 -1 -1 -1 -1 -1 -2 -2 -2 -2
-3 -3 -4 -3 -3 -2 -2 -2 -2 -2 -2 -1 -1 -1 -1 -1 -1 -1 -1 -1 -1 -1 -1 -1 -1 -1 -1 -1 -0 -0 -1 -1 -1 -1 -1 -2 -2 -2 -2 -2 -2 -2 -3 -3
-3 -3 -3 -3 -3 -3 -3 -3 -3 -2 -2 -2 -2 -2 -1 -2 -2 -2 -2 -2 -2 -2 -2 -2 -1 -1 -1 -1 -1 -1 -1 -1 -2 -2 -2 -2 -2 -2 -2 -2 -3 -3 -3 -3
-4 -4 -4 -4 -4 -4 -3 -3 -3 -3 -3 -3 -3 -3 -2 -2 -2 -2 -2 -2 -2 -2 -2 -2 -2 -2 -2 -2 -2 -2 -2 -2 -2 -3 -3 -3 -3 -3 -3 -3 -3 -3 -3 -3
-4 -4 -4 -4 -4 -4 -4 -4 -4 -4 -4 -4 -3 -3 -3 -3 -3 -3 -3 -3 -3 -3 -3 -3 -3 -3 -3 -3 -3 -3 -3 -3 -3 -3 -3 -3 -4 -4 -4 -4 -4 -4 -3 -3
-5 -5 -5 -5 -5 -5 -5 -4 -4 -4 -4 -4 -4 -4 -4 -4 -4 -4 -4 -4 -3 -3 -3 -3 -3 -3 -3 -3 -4 -4 -4 -4 -4 -4 -4 -4 -4 -4 -4 -4 -4 -4 -4 -4
-6 -6 -6 -6 -6 -5 -5 -5 -5 -5 -5 -5 -5 -5 -5 -4 -4 -4 -4 -4 -4 -4 -4 -4 -4 -4 -4 -4 -4 -4 -4 -4 -4 -4 -4 -5 -5 -5 -5 -5 -5 -5 -5 -5
-6 -6 -6 -6 -6 -6 -6 -6 -6 -6 -6 -5 -5 -5 -5 -5 -5 -5 -5 -5 -5 -5 -5 -5 -5 -5 -5 -5 -5 -5 -5 -5 -5 -5 -5 -5 -5 -5 -5 -5 -5 -5 -5 -5
-6 -6 -6 -6 -6 -6 -6 -6 -6 -6 -6 -6 -6 -6 -6 -6 -6 -6 -6 -6 -5 -5 -5 -5 -5 -5 -5 -5 -5 -5 -5 -5 -5 -5 -6 -6 -6 -6 -6 -5 -5 -5 -5 -5
-6 -6 -6 -6 -6 -6 -7 -7 -7 -7 -7 -7 -7 -6 -6 -6 -6 -6 -6 -6 -6 -6 -6 -6 -6 -6 -5 -5 -5 -5 -6 -6 -6 -6 -6 -6 -6 -6 -6 -6 -6 -6 -6 -5
-7 -7 -7 -7 -7 -7 -7 -7 -7 -7 -7 -7 -7 -7 -7 -7 -7 -7 -7 -7 -7 -7 -7 -6 -6 -6 -6 -6 -6 -6 -6 -6 -6 -6 -6 -6 -6 -6 -6 -6 -6 -6 -6 -6
-8 -8 -8 -8 -8 -8 -8 -8 -8 -8 -8 -8 -8 -8 -8 -8 -7 -7 -7 -7 -7 -7 -7 -7 -7 -7 -7 -7 -7 -7 -7 -7 -7 -7 -7 -7 -7 -7 -6 -6 -6 -6 -6 -6
-8 -8 -8 -8 -8 -8 -8 -8 -8 -8 -8 -8 -8 -8 -8 -8 -8 -8 -8 -8 -8 -8 -8 -7 -7 -7 -7 -7 -7 -7 -7 -7 -7 -7 -7 -7 -7 -7 -7 -7 -7 -6 -6 -6
-8 -8 -9 -9 -9 -8 -8 -8 -9 -9 -9 -9 -9 -9 -9 -8 -8 -8 -8 -8 -8 -8 -8 -8 -8 -8 -8 -7 -7 -7 -7 -7 -7 -8 -8 -7 -7 -7 -7 -7 -7 -7 -7 -6
-9 -9 -9 -9 -9 -9 -9 -9 -9 -9 -9 -9 -9 -9 -9 -9 -9 -9 -9 -9 -8 -8 -8 -8 -8 -8 -8 -8 -8 -8 -8 -8 -8 -8 -8 -7 -7 -7 -7 -7 -7 -7 -7 -6
-9 -9 -9 -9 -9 -9 -9 -9 -9 -9 -9 -9 -9 -9 -9 -9 -9 -9 -9 -9 -9 -8 -8 -8 -8 -8 -8 -8 -8 -8 -8 -8 -8 -8 -8 -8 -7 -7 -7 -7 -7 -7 -7 -6
-9 -9 -10 -10 -10 -10 -10 -10 -10 -10 -10 -10 -9 -9 -9 -9 -9 -9 -9 -9 -9 -9 -9 -9 -8 -8 -8 -8 -8 -8 -8 -8 -8 -8 -8 -8 -7 -7 -7 -7 -7 -7 -7 -6
Wind_Speed
4 4 3 4 6 6 7 8 7 7 6 6 4 3 2 2 3 4 3 3 3 3 3 4 4 3 4 4 4 4 5 4 3 3 2 2 1 0 1 1 1 2 2 3
4 4 3 3 5 7 8 7 7 5 5 3 1 2 2 2 3 3 2 2 2 2 3 3 4 4 4 3 3 4 4 4 3 3 2 1 1 0 1 1 2 2 2 3
3 3 1 4 5 6 5 5 6 9 8 3 2 3 3 3 3 3 2 1 1 1 2 2 3 4 4 3 3 4 4 3 3 3 2 1 1 1 1 2 2 2 3 3
1 1 4 5 2 4 4 2 3 3 3 5 5 3 1 2 3 2 1 1 1 1 1 2 2 3 3 4 4 4 4 3 3 3 2 1 1 1 1 2 2 2 3 3
2 2 4 4 2 0 3 2 2 2 2 3 4 4 3 2 1 2 1 1 1 1 2 2 3 3 5 4 4 4 3 2 2 2 2 1 0 1 1 2 2 3 3 3
2 2 4 4 5 3 2 2 3 2 4 4 4 2 3 2 1 2 2 2 2 2 3 3 2 4 5 4 4 3 2 2 1 2 2 1 1 1 1 2 2 3 4 4
3 3 4 5 6 1 3 4 3 2 4 4 3 3 2 1 2 3 3 3 3 4 4 2 2 5 5 4 2 1 1 2 1 1 1 1 0 1 1 2 2 3 4 4
2 2 4 6 3 1 3 3 1 1 2 3 4 4 4 3 3 4 4 3 3 4 4 3 3 5 5 3 1 2 2 2 2 1 1 1 1 1 1 1 2 3 3 4
2 2 2 2 1 2 2 2 2 1 1 4 4 4 3 3 3 3 3 3 4 5 5 4 4 4 4 2 2 3 3 2 2 2 2 1 1 1 1 1 1 2 3 3
1 2 3 4 5 6 5 4 3 2 3 4 4 4 3 3 3 3 3 3 3 5 5 4 4 4 3 2 3 3 3 2 2 2 2 2 2 1 1 1 1 2 3 3
1 3 4 5 7 6 6 6 6 6 4 4 5 4 3 3 3 3 3 3 3 4 4 4 4 4 3 3 3 3 3 2 2 2 1 2 2 2 2 1 2 2 2 3
3 3 2 3 4 5 5 5 5 5 6 5 3 4 4 3 2 3 3 3 4 4 4 3 3 3 3 3 3 3 2 2 1 1 1 2 2 3 5 4 6 5 5 5
3 2 2 2 3 4 4 4 5 5 4 4 4 4 4 3 3 3 3 3 3 3 3 3 3 3 3 3 3 3 2 1 1 1 1 1 2 2 3 5 6 6 7 7
3 2 2 2 3 4 4 5 6 6 6 5 4 4 4 4 4 4 3 2 3 3 3 3 3 3 3 2 3 2 2 1 1 1 1 1 1 2 2 3 5 5 6 8
5 4 1 2 3 5 5 5 6 6 6 6 5 4 4 4 4 3 3 3 3 4 3 3 3 3 3 2 2 2 2 1 1 1 1 1 1 2 2 3 3 4 5 6
4 4 3 4 4 4 4 5 4 4 4 4 4 4 4 4 4 4 3 3 3 3 2 2 2 2 2 2 2 2 1 2 2 1 1 1 1 2 2 3 3 4 4 4
2 2 2 3 3 3 3 3 2 2 2 3 3 3 3 4 4 4 4 3 3 2 2 2 2 2 2 2 1 1 1 2 3 2 1 1 2 2 3 3 3 4 4 5
1 1 0 0 0 1 2 3 2 2 2 2 2 3 3 3 2 2 2 2 3 3 3 2 2 2 1 1 1 1 1 1 1 2 2 2 2 2 3 3 3 4 4 5
3 2 2 2 2 1 1 2 2 2 2 2 3 3 3 2 2 2 2 3 3 3 3 3 3 3 2 2 1 0 1 1 2 2 2 3 3 2 3 3 4 4 4 4
4 4 4 4 3 3 2 2 2 2 2 2 3 4 4 3 2 2 2 2 2 2 2 2 2 2 2 2 2 1 1 1 1 2 2 2 2 3 3 4 4 4 4 4
3 4 4 4 4 3 3 2 2 3 3 3 3 3 2 2 2 2 2 2 3 3 2 3 2 2 2 2 2 1 1 1 2 2 2 3 3 3 4 4 4 4 4 4
2 2 3 3 3 3 3 3 3 3 3 3 3 3 2 3 3 2 2 1 3 4 3 2 2 3 3 3 1 1 1 2 2 2 2 3 3 4 4 4 4 4 4 4
1 2 2 2 2 2 3 3 3 3 3 2 2 2 2 2 1 1 2 3 2 4 3 2 4 5 5 2 1 1 2 2 3 3 3 3 4 4 4 5 4 4 4 4
1 1 1 1 2 3 3 3 3 2 2 2 2 2 1 1 2 1 1 4 5 5 3 4 6 6 5 2 2 2 2 3 3 3 3 3 4 4 4 4 4 4 4 4
1 1 1 1 2 1 1 1 2 2 2 2 2 2 2 1 1 2 2 3 5 5 3 5 7 6 4 3 3 3 3 3 3 3 3 3 4 4 4 4 4 4 3 3
0 0 0 0 0 0 0 1 1 1 1 2 2 2 2 2 2 2 2 3 4 5 4 3 4 4 3 3 3 4 3 4 4 4 4 4 4 5 4 4 5 3 3 3
1 1 1 1 1 1 1 0 0 1 1 1 2 2 2 2 2 2 3 3 3 3 3 3 3 3 3 3 3 4 3 3 3 4 4 4 4 4 4 5 4 3 3 3
Wind_Direction
274 266 212 221 223 206 203 201 202 218 217 234 224 191 153 120 110 102 96 97 112 132 145 144 144 149 154 157 153 149 144 147 159 160 151 147 142 64 351 340 318 302 304 306
286 275 242 254 236 216 223 217 215 217 248 260 216 117 101 120 124 119 120 116 105 113 129 147 158 159 154 153 149 141 143 151 144 132 126 127 120 37 10 354 339 333 326 324
263 292 332 262 232 209 209 209 191 217 229 198 164 155 171 171 151 151 159 136 126 134 150 158 164 156 152 155 137 133 139 137 134 130 129 133 88 36 350 335 335 330 328 327
245 31 228 247 267 189 184 215 217 207 188 178 177 176 154 150 152 152 158 151 153 136 121 124 126 124 129 124 125 128 128 127 130 132 136 131 90 359 326 319 319 315 318 318
177 215 271 301 343 156 182 258 277 185 152 133 130 87 13 357 126 170 178 157 169 154 132 119 122 124 116 108 113 118 122 132 145 143 142 133 106 306 315 320 324 319 317 316
176 187 234 282 302 291 148 272 302 187 165 152 128 144 249 303 69 78 75 86 104 97 95 101 112 118 113 112 110 117 136 150 146 140 146 162 221 285 316 320 317 321 321 316
206 222 262 307 314 45 159 244 293 193 175 162 173 189 189 94 68 74 67 61 75 86 88 96 113 115 114 111 121 138 108 96 92 102 138 169 310 322 330 334 331 324 322 317
185 211 262 332 18 132 243 306 349 95 128 122 102 91 86 86 80 73 61 57 70 85 75 60 85 109 107 103 101 90 89 76 58 40 36 42 37 347 335 333 335 328 328 326
196 212 299 350 357 326 332 345 351 21 100 118 108 98 86 77 79 70 66 65 70 89 80 56 56 93 105 91 85 89 86 73 49 32 28 26 38 346 337 347 346 325 324 321
230 303 335 360 8 4 9 11 14 56 93 109 111 110 97 85 74 73 71 70 76 86 84 64 50 60 79 82 86 94 88 67 52 46 24 13 14 6 345 326 318 313 315 315
292 315 358 5 1 4 20 34 44 47 54 88 108 106 101 84 66 71 66 60 76 89 88 73 62 57 52 60 82 86 78 63 43 35 32 20 13 357 336 311 297 296 286 294
249 269 276 300 329 353 22 30 37 52 48 44 76 102 91 82 70 74 74 69 75 77 78 70 68 62 47 53 77 91 82 60 46 41 30 26 18 4 2 352 349 342 330 320
273 296 292 306 349 10 28 27 36 48 57 52 53 75 90 90 73 76 77 78 85 87 85 79 72 60 41 45 66 79 91 69 43 30 28 19 12 4 346 345 351 351 349 341
351 37 51 9 9 21 38 45 50 48 47 52 55 62 73 79 74 70 65 69 80 86 82 78 74 51 25 41 62 66 59 45 38 24 7 357 344 331 329 330 333 335 340 341
3 21 61 31 39 39 41 54 58 50 44 38 41 56 68 77 71 58 47 57 73 76 71 72 65 26 12 38 52 50 41 24 17 359 351 341 331 327 323 321 319 320 326 332
349 30 60 63 53 41 40 45 52 37 33 35 41 48 64 77 71 54 42 54 77 70 55 59 41 4 10 38 46 34 8 357 359 345 329 328 327 323 320 319 317 316 318 319
13 30 35 32 28 26 22 22 28 19 31 40 41 49 62 69 64 51 40 40 59 64 53 44 13 5 21 32 45 19 348 340 351 346 320 310 308 308 307 308 309 310 308 313
19 16 16 177 28 19 10 13 24 39 43 40 49 62 67 71 68 46 28 40 57 48 25 5 3 21 23 14 23 353 335 326 322 310 305 303 303 298 296 296 300 304 308 314
30 40 44 47 46 61 48 34 33 36 35 47 66 67 63 61 60 52 47 56 52 25 347 342 2 15 360 337 354 325 309 310 311 305 302 306 314 305 297 295 296 299 303 308
40 43 50 48 46 61 62 51 51 45 39 56 73 72 59 41 40 47 52 46 4 307 302 329 350 347 329 317 332 299 292 295 295 298 297 295 294 295 294 294 295 297 299 300
38 42 47 47 43 43 49 51 63 59 48 56 71 69 53 26 23 36 47 11 337 338 341 345 353 333 316 319 329 323 304 291 288 288 289 290 292 292 293 295 296 297 298 299
34 48 45 45 51 40 28 35 52 61 54 52 53 54 47 27 20 24 22 316 314 339 355 345 333 330 333 337 345 324 304 292 285 285 284 286 287 290 293 297 297 299 299 298
34 50 53 51 52 39 31 34 38 49 50 45 40 35 34 16 7 17 347 337 331 341 351 339 336 339 342 351 339 314 302 293 290 288 285 284 284 286 290 294 295 296 297 298
43 46 49 49 65 65 46 20 19 28 32 28 21 12 13 10 356 344 304 322 335 339 343 335 340 342 344 352 331 314 305 299 295 293 293 293 290 291 292 293 293 295 295 298
67 70 74 75 70 61 45 19 23 22 22 15 360 355 355 337 290 309 316 319 329 337 336 334 339 341 347 342 330 318 309 302 299 298 295 297 298 300 301 299 297 299 301 301
96 90 46 79 154 138 37 42 34 355 360 0 351 343 338 330 314 312 314 315 316 328 330 327 328 331 330 321 315 312 308 310 314 313 307 303 301 301 302 304 302 302 300 300
62 63 65 44 25 30 40 43 6 329 327 322 319 323 325 325 324 322 319 323 323 323 319 317 316 316 316 315 312 310 306 303 301 300 299 297 295 296 299 301 303 303 302 301
Height
1439 1437 1437 1436 1436 1437 1438 1438 1440 1436 1436 1433 1433 1433 1434 1434 1435 1436 1438 1439 1441 1442 1444 1446 1448 1450 1452 1454 1456 1458 1459 1461 1462 1463 1465 1466 1466 1466 1466 1466 1466 1465 1464 1463
1438 1434 1434 1434 1433 1434 1434 1434 1434 1434 1435 1432 1432 1433 1434 1435 1436 1437 1438 1439 1441 1442 1443 1445 1447 1449 1451 1453 1455 1456 1457 1459 1460 1461 1462 1463 1464 1464 1464 1463 1463 1462 1461 1459
1441 1436 1433 1435 1431 1432 1432 1431 1431 1432 1431 1431 1433 1433 1434 1435 1436 1437 1438 1439 1440 1441 1443 1444 1446 1448 1449 1451 1453 1454 1456 1457 1458 1459 1460 1461 1461 1461 1461 1461 1460 1459 1458 1457
1443 1441 1439 1430 1426 1426 1428 1428 1427 1427 1427 1428 1430 1432 1433 1434 1435 1436 1437 1439 1440 1441 1442 1444 1445 1447 1448 1450 1451 1453 1454 1455 1456 1457 1458 1459 1459 1459 1459 1458 1458 1457 1456 1454
1446 1443 1435 1429 1427 1427 1429 1429 1427 1427 1427 1428 1429 1431 1433 1434 1435 1436 1437 1438 1439 1440 1442 1443 1444 1446 1447 1448 1450 1451 1452 1454 1455 1456 1456 1457 1457 1457 1457 1456 1456 1454 1453 1451
1444 1440 1436 1431 1426 1425 1427 1430 1426 1425 1426 1428 1428 1434 1435 1434 1434 1435 1436 1437 1439 1439 1441 1442 1443 1445 1446 1447 1449 1450 1451 1452 1453 1454 1455 1455 1455 1455 1455 1454 1453 1452 1450 1448
1441 1440 1435 1431 1426 1424 1432 1430 1425 1424 1425 1426 1428 1430 1432 1433 1433 1434 1435 1436 1438 1438 1439 1441 1442 1444 1445 1446 1447 1449 1450 1451 1452 1452 1453 1453 1453 1453 1453 1452 1450 1449 1447 1446
1440 1439 1439 1432 1429 1430 1430 1426 1424 1424 1425 1426 1427 1429 1430 1431 1432 1433 1434 1435 1437 1437 1438 1440 1441 1443 1443 1445 1446 1447 1448 1449 1450 1451 1451 1451 1451 1451 1450 1449 1447 1446 1444 1442
1440 1440 1436 1433 1431 1430 1428 1426 1425 1425 1426 1426 1427 1429 1430 1432 1433 1434 1434 1435 1436 1437 1438 1439 1440 1442 1443 1444 1445 1446 1447 1448 1449 1449 1449 1449 1449 1448 1447 1446 1444 1443 1441 1439
1439 1436 1435 1433 1431 1430 1428 1427 1426 1426 1426 1427 1428 1429 1431 1432 1433 1434 1434 1435 1436 1437 1437 1439 1440 1441 1442 1443 1444 1445 1446 1446 1447 1447 1447 1447 1446 1446 1444 1443 1442 1440 1438 1436
1439 1437 1435 1433 1433 1432 1430 1429 1428 1427 1428 1428 1428 1430 1431 1432 1433 1434 1434 1435 1436 1437 1437 1438 1439 1440 1442 1442 1443 1444 1444 1445 1445 1445 1445 1444 1444 1443 1442 1441 1439 1438 1436 1434
1440 1438 1437 1436 1434 1433 1431 1430 1429 1428 1428 1429 1430 1430 1431 1432 1433 1434 1434 1435 1436 1437 1437 1438 1439 1440 1441 1441 1442 1442 1442 1443 1443 1443 1443 1442 1441 1441 1440 1439 1437 1436 1434 1433
1438 1436 1436 1435 1435 1434 1432 1431 1430 1430 1429 1430 1430 1431 1431 1432 1433 1434 1434 1435 1436 1436 1437 1437 1438 1439 1440 1440 1440 1440 1441 1441 1441 1441 1440 1440 1439 1438 1437 1437 1435 1434 1432 1430
1437 1436 1436 1436 1435 1434 1433 1432 1432 1431 1431 1431 1431 1431 1431 1432 1433 1434 1434 1435 1435 1436 1436 1437 1438 1438 1438 1439 1439 1439 1439 1439 1439 1439 1438 1438 1437 1436 1435 1433 1432 1431 1430 1428
1438 1437 1436 1435 1435 1434 1434 1433 1432 1432 1431 1432 1432 1432 1432 1432 1433 1434 1434 1435 1435 1436 1436 1436 1437 1437 1438 1438 1438 1438 1438 1438 1437 1437 1437 1436 1435 1434 1433 1431 1430 1428 1427 1425
1438 1437 1436 1436 1435 1434 1434 1433 1433 1432 1432 1432 1432 1432 1433 1433 1433 1434 1435 1435 1435 1435 1435 1436 1436 1436 1436 1436 1436 1436 1436 1436 1436 1435 1435 1434 1433 1431 1430 1429 1428 1426 1424 1423
1437 1436 1436 1435 1435 1434 1434 1434 1433 1433 1433 1433 1433 1433 1433 1433 1434 1434 1434 1434 1434 1435 1435 1435 1435 1435 1435 1435 1435 1435 1434 1434 1434 1433 1432 1432 1431 1429 1428 1427 1425 1424 1423 1421
1438 1437 1437 1436 1435 1434 1434 1434 1434 1433 1433 1433 1433 1433 1433 1433 1433 1433 1434 1434 1434 1434 1434 1434 1434 1434 1434 1434 1433 1433 1433 1432 1432 1431 1430 1429 1428 1427 1426 1425 1423 1422 1420 1419
1438 1437 1436 1436 1435 1434 1434 1434 1434 1433 1433 1433 1433 1433 1433 1433 1433 1433 1433 1433 1433 1433 1433 1433 1433 1432 1432 1432 1432 1431 1431 1430 1429 1429 1428 1427 1426 1425 1423 1422 1421 1420 1418 1416
1438 1437 1436 1436 1435 1435 1434 1434 1434 1433 1433 1433 1433 1433 1433 1433 1433 1433 1432 1432 1432 1432 1431 1431 1431 1431 1430 1430 1430 1429 1429 1428 1427 1426 1425 1424 1423 1422 1421 1420 1418 1417 1416 1414
1438 1437 1436 1436 1435 1435 1434 1434 1434 1433 1433 1433 1433 1433 1432 1432 1432 1432 1431 1431 1431 1430 1430 1430 1429 1429 1428 1428 1428 1427 1426 1425 1425 1424 1423 1422 1420 1419 1418 1417 1416 1415 1413 1412
1438 1437 1437 1436 1436 1435 1435 1435 1434 1434 1433 1433 1433 1433 1432 1432 1432 1431 1431 1430 1430 1429 1429 1428 1427 1427 1427 1426 1425 1425 1424 1423 1422 1421 1420 1419 1418 1416 1415 1414 1413 1412 1411 1409
1438 1438 1437 1437 1436 1436 1435 1435 1435 1434 1434 1433 1433 1432 1432 1432 1431 1431 1430 1430 1429 1428 1427 1426 1426 1425 1425 1424 1423 1422 1421 1420 1419 1418 1417 1416 1415 1414 1413 1412 1411 1410 1408 1407
1438 1437 1437 1437 1436 1436 1435 1435 1435 1434 1434 1433 1433 1432 1432 1431 1430 1430 1429 1429 1428 1427 1426 1425 1424 1423 1423 1422 1421 1420 1419 1418 1417 1416 1415 1413 1412 1411 1410 1409 1408 1407 1406 1405
1438 1437 1437 1436 1436 1435 1435 1435 1434 1434 1434 1433 1433 1432 1431 1431 1430 1429 1428 1427 1426 1425 1424 1423 1422 1421 1420 1419 1418 1417 1416 1415 1414 1413 1412 1411 1410 1409 1408 1407 1406 1405 1403 1402
1437 1437 1436 1436 1436 1435 1435 1435 1434 1434 1433 1432 1432 1431 1431 1430 1429 1428 1427 1426 1425 1423 1422 1421 1420 1419 1418 1417 1416 1415 1414 1413 1412 1411 1410 1409 1408 1407 1406 1405 1404 1403 1401 1400
1436 1436 1436 1436 1435 1435 1435 1434 1434 1433 1432 1432 1431 1430 1429 1428 1427 1426 1425 1424 1423 1421 1420 1419 1418 1417 1416 1415 1414 1413 1412 1411 1409 1408 1407 1406 1406 1405 1404 1403 1402 1401 1400 1398